Orange, VA

2:11 AM EST on November 18, 2017 (GMT -0500)
Orange County

Weather History for KOMH - January, 2014

Change the Weather History Date:

Wednesday, January 15, 2014

  Actual Average Record
Temperature  
Mean Temperature 46 °F -  
Max Temperature 59 °F 41 °F 76 °F (1952)
Min Temperature 32 °F 22 °F 2 °F (1964)
Degree Days  
Heating Degree Days 20    
Moisture  
Dew Point 39 °F    
Average Humidity 92    
Maximum Humidity 100    
Minimum Humidity 59    
Precipitation  
Precipitation 0.13 in - - ()
Sea Level Pressure  
Sea Level Pressure 29.92 in    
Wind  
Wind Speed 2 mph (North)    
Max Wind Speed 15 mph    
Max Gust Speed 23 mph    
Visibility 7 miles    
Events Fog , Rain , Snow , Thunderstorm    
Averages and records for this station are not official NWS values.
T = Trace of Precipitation, MM = Missing Value Source: NWS Daily Summary

Daily Weather History Graph

Daily Weather History Graph

Search for Another Location

Airport or City:

Trip Planner

Search our weather history database for the weather conditions in past years. The results will help you decide how hot, cold, wet, or windy it might be!

Date:

Astronomy

Jan. 15, 2014 Rise Set
Actual Time 7:27 AM EST 5:16 PM EST
Civil Twilight 6:58 AM EST 5:44 PM EST
Nautical Twilight 6:26 AM EST 6:17 PM EST
Astronomical Twilight 5:54 AM EST 6:49 PM EST
Moon 5:11 PM EST (1/15) 6:43 AM EST (1/15)
Length of Visible Light 10h 46m
Length of Day
9h 48m
Full, 100% of the Moon is Illuminated
Jan 15
Full
Jan 15
Full
Jan 24
Last Quarter
Jan 30
New
Feb 6
First Quarter

Hourly Weather History & Observations

Time (EST) Temp. Windchill Dew Point Humidity Pressure Visibility Wind Dir Wind Speed Gust Speed Precip Events Conditions
12:15 AM 41.0 °F - 41.0 °F 100% 29.93 in 0.2 mi Calm Calm - N/A Fog Fog
12:35 AM 41.0 °F - 41.0 °F 100% 29.92 in 0.2 mi Calm Calm - N/A Fog Fog
12:55 AM 39.2 °F - 39.2 °F 100% 29.92 in 0.2 mi Calm Calm - N/A Fog Fog
1:15 AM 37.4 °F - 37.4 °F 100% 29.93 in 0.2 mi Calm Calm - N/A Fog Fog
1:35 AM 37.4 °F - 37.4 °F 100% 29.93 in 0.2 mi Calm Calm - N/A Fog Fog
1:55 AM 35.6 °F - 35.6 °F 100% 29.93 in 0.5 mi Calm Calm - N/A Fog Fog
2:15 AM 35.6 °F - 35.6 °F 100% 29.93 in 0.5 mi Calm Calm - N/A Fog Fog
2:35 AM 35.6 °F - 35.6 °F 100% 29.94 in 0.2 mi Calm Calm - N/A Fog Fog
2:55 AM 35.6 °F - 35.6 °F 100% 29.94 in 0.8 mi Calm Calm - N/A   Mostly Cloudy
3:15 AM 33.8 °F - 33.8 °F 100% 29.94 in 7.0 mi Calm Calm - N/A   Clear
3:35 AM 33.8 °F - 33.8 °F 100% 29.94 in 10.0 mi Calm Calm - N/A   Clear
3:55 AM 33.8 °F - 33.8 °F 100% 29.94 in 10.0 mi Calm Calm - N/A   Clear
4:15 AM 33.8 °F - 33.8 °F 100% 29.93 in 5.0 mi Calm Calm - N/A   Clear
4:35 AM 33.8 °F - 33.8 °F 100% 29.92 in 0.8 mi Calm Calm - N/A   Mist
4:55 AM 33.8 °F - 33.8 °F 100% 29.92 in 10.0 mi Calm Calm - N/A   Clear
5:15 AM 33.8 °F - 33.8 °F 100% 29.93 in 10.0 mi Calm Calm - N/A   Clear
5:35 AM 32.0 °F - 32.0 °F 100% 29.93 in 10.0 mi Calm Calm - N/A   Clear
5:55 AM 33.8 °F - 33.8 °F 100% 29.93 in 7.0 mi Calm Calm - N/A   Clear
6:15 AM 32.0 °F - 32.0 °F 100% 29.94 in 7.0 mi Calm Calm - N/A   Clear
6:35 AM 32.0 °F - 32.0 °F 100% 29.93 in 10.0 mi Calm Calm - N/A   Scattered Clouds
6:55 AM 32.0 °F - 32.0 °F 100% 29.94 in 1.2 mi Calm Calm - N/A   Overcast
7:15 AM 33.8 °F - 33.8 °F 100% 29.94 in 1.2 mi Calm Calm - N/A   Mostly Cloudy
7:35 AM 32.0 °F - 32.0 °F 100% 29.95 in 2.5 mi Calm Calm - N/A   Clear
7:55 AM 32.0 °F - 32.0 °F 100% 29.95 in 0.2 mi Calm Calm - N/A Fog Fog
8:15 AM 32.0 °F - 32.0 °F 100% 29.95 in 0.2 mi Calm Calm - N/A Fog Fog
8:35 AM 33.8 °F - 33.8 °F 100% 29.95 in 1.8 mi Calm Calm - N/A   Mist
8:55 AM 35.6 °F - 35.6 °F 100% 29.96 in 7.0 mi Calm Calm - 0.01 in   Clear
9:15 AM 37.4 °F - 37.4 °F 100% 29.96 in 10.0 mi Calm Calm - N/A   Clear
9:35 AM 41.0 °F - 41.0 °F 100% 29.96 in 10.0 mi Calm Calm - N/A   Clear
9:55 AM 42.8 °F 41.1 °F 42.8 °F 100% 29.95 in 10.0 mi ESE 3.5 mph - N/A   Clear
10:15 AM 42.8 °F 41.1 °F 42.8 °F 100% 29.95 in 10.0 mi East 3.5 mph - N/A   Clear
10:35 AM 42.8 °F 40.1 °F 42.8 °F 100% 29.95 in 10.0 mi East 4.6 mph - N/A   Clear
10:55 AM 44.6 °F - 44.6 °F 100% 29.95 in 10.0 mi Calm Calm - N/A   Clear
11:15 AM 46.4 °F - 46.4 °F 100% 29.94 in 10.0 mi Calm Calm - N/A   Clear
11:35 AM 48.2 °F - 48.2 °F 100% 29.93 in 10.0 mi Calm Calm - N/A   Clear
11:55 AM 50.0 °F - 50.0 °F 100% 29.91 in 10.0 mi SE 5.8 mph - N/A   Clear
12:15 PM 53.6 °F - 46.4 °F 77% 29.89 in 10.0 mi SSE 5.8 mph - N/A   Clear
12:35 PM 55.4 °F - 46.4 °F 72% 29.88 in 10.0 mi SSE 5.8 mph - N/A   Clear
12:55 PM 55.4 °F - 44.6 °F 67% 29.87 in 10.0 mi East 4.6 mph - N/A   Mostly Cloudy
1:15 PM 55.4 °F - 46.4 °F 72% 29.86 in 10.0 mi East 5.8 mph - N/A   Overcast
1:35 PM 57.2 °F - 44.6 °F 63% 29.86 in 10.0 mi SSE 4.6 mph - N/A   Overcast
1:55 PM 57.2 °F - 44.6 °F 63% 29.85 in 10.0 mi East 5.8 mph - N/A   Overcast
2:15 PM 59.0 °F - 44.6 °F 59% 29.85 in 10.0 mi SSE 3.5 mph - N/A   Overcast
2:35 PM 57.2 °F - 42.8 °F 59% 29.85 in 10.0 mi Calm Calm - N/A   Overcast
2:55 PM 57.2 °F - 42.8 °F 59% 29.85 in 10.0 mi ESE 3.5 mph - N/A   Mostly Cloudy
3:15 PM 55.4 °F - 44.6 °F 67% 29.85 in 10.0 mi East 5.8 mph - N/A   Mostly Cloudy
3:35 PM 55.4 °F - 46.4 °F 72% 29.85 in 10.0 mi East 8.1 mph - N/A   Overcast
3:55 PM 53.6 °F - 46.4 °F 77% 29.86 in 10.0 mi NNW 4.6 mph - N/A   Overcast
4:15 PM 50.0 °F - 46.4 °F 87% 29.87 in 10.0 mi North 10.4 mph 16.1 mph N/A   Overcast
4:35 PM 50.0 °F - 44.6 °F 82% 29.88 in 10.0 mi NNW 9.2 mph - N/A   Overcast
4:55 PM 50.0 °F - 42.8 °F 76% 29.89 in 10.0 mi NNW 9.2 mph - N/A   Overcast
5:15 PM 50.0 °F - 42.8 °F 76% 29.89 in 10.0 mi North 10.4 mph - N/A   Overcast
5:35 PM 48.2 °F - 41.0 °F 76% 29.89 in 10.0 mi NNW 15.0 mph 20.7 mph N/A Rain Light Rain
5:55 PM 44.6 °F 37.8 °F 39.2 °F 81% 29.91 in 10.0 mi NNW 15.0 mph 20.7 mph N/A Rain Light Rain
6:15 PM 42.8 °F 35.4 °F 37.4 °F 81% 29.92 in 4.0 mi NNW 15.0 mph 23.0 mph 0.03 in Rain Rain
6:35 PM 41.0 °F 35.2 °F 37.4 °F 87% 29.94 in 7.0 mi NW 9.2 mph 18.4 mph 0.05 in Rain Rain
6:55 PM 41.0 °F 36.4 °F 37.4 °F 87% 29.94 in 5.0 mi NNW 6.9 mph - 0.07 in Rain Light Rain
7:15 PM 41.0 °F 36.4 °F 39.2 °F 93% 29.94 in 5.0 mi NNW 6.9 mph - 0.01 in Rain Light Rain
7:35 PM 39.2 °F 32.5 °F 39.2 °F 100% 29.95 in 10.0 mi NNW 10.4 mph - 0.02 in Rain Light Rain
7:55 PM 39.2 °F 34.2 °F 37.4 °F 93% 29.95 in 5.0 mi NNW 6.9 mph - 0.03 in Rain , Thunderstorm Light Thunderstorms and Rain
8:15 PM 39.2 °F 33.6 °F 37.4 °F 93% 29.95 in 7.0 mi NNW 8.1 mph - N/A Rain Rain
8:35 PM 37.4 °F 31.4 °F 37.4 °F 100% 29.95 in 10.0 mi NNW 8.1 mph - 0.01 in   Light Drizzle
8:55 PM 37.4 °F 32.1 °F 37.4 °F 100% 29.95 in 10.0 mi NNW 6.9 mph - 0.01 in   Overcast
9:15 PM 37.4 °F 31.4 °F 37.4 °F 100% 29.95 in 10.0 mi North 8.1 mph - N/A   Overcast
9:35 PM 37.4 °F 32.8 °F 37.4 °F 100% 29.96 in 10.0 mi NNW 5.8 mph - N/A Rain Light Rain
9:55 PM 37.4 °F 31.4 °F 37.4 °F 100% 29.96 in 10.0 mi North 8.1 mph - N/A Rain Rain
10:15 PM 37.4 °F 33.8 °F 37.4 °F 100% 29.96 in 10.0 mi North 4.6 mph - N/A   Overcast
10:35 PM 37.4 °F 33.8 °F 37.4 °F 100% 29.98 in 10.0 mi WNW 4.6 mph - N/A Rain Light Rain
10:55 PM 37.4 °F 33.8 °F 37.4 °F 100% 29.96 in 10.0 mi North 4.6 mph - N/A Rain Light Rain
11:15 PM 37.4 °F 32.8 °F 37.4 °F 100% 29.97 in 7.0 mi NNW 5.8 mph - N/A Rain Light Rain
11:35 PM 37.4 °F 32.8 °F 37.4 °F 100% 29.97 in 4.0 mi NNW 5.8 mph - 0.01 in   Overcast
11:55 PM 37.4 °F 34.9 °F 37.4 °F 100% 29.97 in 5.0 mi North 3.5 mph - 0.01 in Snow Light Snow